Location: Böckstein
(48.4194°N, 14.1114°E)
Time: 07:38:59
(UTC+00:00)

Daily predictions for brighter satellites

Satellite Brightness Start Highest point End
(mag) Time Altitude Azimuth Time Altitude Azimuth Time Altitude Azimuth
Meteor 2-5 Rocket 3.7 19:50:50 10° S 19:56:19 71° E 20:01:52 10° NNE
USA 245 3.6 19:51:56 10° SSE 19:56:36 67° ENE 20:00:21 10° N
Cosmos 1455 2.7 19:52:56 10° N 19:56:36 44° ENE 20:00:16 10° SSE
Cosmos 1607 4.0 19:50:38 10° SSW 19:56:45 61° ESE 20:02:51 10° NE
SPOT 1/Viking Rocket 4.0 19:51:43 10° S 19:56:48 63° WSW 20:01:57 10° NNW
NOSS 2-1 (C) 4.1 19:53:32 10° NW 19:57:50 66° NE 20:03:54 10° SE
USA 32 4.3 19:53:36 10° SSE 19:58:39 53° E 20:03:44 10° NNE
Ariane Rocket 3.3 19:54:52 10° S 19:59:57 69° WSW 20:05:03 10° NNW
USA 267 4.0 19:54:29 10° ENE 19:59:59 28° SE 20:05:26 10° S
Cosmos 1954 Rocket 4.1 19:56:35 10° NNW 20:01:55 80° ENE 20:07:09 10° SSE
NOSS 2-1 (D) 4.1 20:03:49 10° NW 20:08:12 77° NE 20:14:20 10° SE
Cosmos 1980 Rocket 4.2 20:04:15 10° N 20:08:16 19° NE 20:12:16 10° E
Cosmos 1536 Rocket 4.4 20:06:23 10° SSE 20:10:14 33° E 20:14:08 10° NNE
Cosmos 1697 Rocket 4.0 20:06:29 10° NNW 20:11:25 30° NE 20:16:20 10° ESE
SPOT 5 2.8 20:07:20 10° SSE 20:11:43 63° ENE 20:16:01 10° N
Cosmos 2228 4.3 20:08:19 10° NNE 20:11:54 26° ENE 20:15:17 11° SE
H-2A R/B 3.5 20:08:46 10° N 20:12:55 42° WNW 20:17:07 10° SW
Cosmos 1975 Rocket 3.6 20:12:03 10° SSW 20:16:28 64° WNW 20:20:53 10° N
Tiangong 2.6 20:14:01 10° WSW 20:16:32 21° S 20:18:24 13° SE
CARTOSAT-1 4.0 20:13:28 10° S 20:17:44 60° W 20:22:01 10° NNW
Cosmos 1703 4.3 20:16:10 12° SSE 20:19:08 28° E 20:22:27 10° NNE
IRAS Rocket 4.4 20:13:59 10° NNE 20:19:38 83° WNW 20:25:12 10° SSW
Cosmos 1656 3.9 20:16:08 10° NNW 20:21:33 61° ENE 20:26:30 13° SE
Cosmos 2084 3.1 20:17:56 10° SW 20:21:46 79° SE 20:25:39 10° NE
USA 276 2.1 20:27:00 10° SW 20:29:55 49° SSE 20:32:51 10° E
Spot 2 Rocket 3.6 20:25:45 10° SSE 20:30:48 85° WSW 20:35:58 10° NNW
ATLAS 2AS CENTAUR R/B 2.9 20:25:00 10° NW 20:32:07 71° SW 20:37:59 14° SSE
Cosmos 1544 Rocket 3.8 20:29:15 10° NNW 20:33:34 67° W 20:37:50 10° S
Meteor 1-24 Rocket 4.0 20:28:44 10° SSW 20:34:01 68° WNW 20:39:27 10° N
USA 234 3.8 20:29:09 10° E 20:35:34 59° NNE 20:42:00 10° NW
Lacrosse 5 2.0 20:31:48 10° WNW 20:36:52 64° SW 20:40:57 16° SE
Cosmos 1452 Rocket 3.8 20:32:13 10° S 20:37:14 47° ESE 20:42:17 10° NNE
X-37B 0.9 20:37:18 10° WSW 20:39:55 35° S 20:41:44 16° ESE
Cosmos 1833 Rocket 3.5 20:36:05 13° SSE 20:40:27 32° ESE 20:45:24 10° NE
Terra 1.8 20:38:02 14° SSE 20:42:10 85° ENE 20:46:58 10° NNW
Cosmos 2184 Rocket 4.0 20:40:16 10° N 20:46:29 80° E 20:51:49 14° SSE
Resurs 01 Rocket 4.1 20:46:27 10° SW 20:49:16 16° W 20:52:05 10° NW
Cosmos 724 4.2 20:46:52 10° SSW 20:52:41 85° SE 20:58:31 10° NE
CZ-4B R/B 4.2 20:53:42 10° NW 20:55:05 13° WNW 20:56:29 10° W
Helios 1A Rocket 3.7 20:51:31 12° S 20:55:06 47° W 20:59:05 10° NNW
Lacrosse 5 rocket 2.9 20:56:39 10° WNW 20:59:44 22° SW 21:01:56 15° S
Cosmos 1271 Rocket 4.2 20:57:11 10° NNW 21:00:49 34° W 21:04:23 10° SSW
Cosmos 2082 Rocket 3.6 21:01:01 17° SE 21:03:23 22° E 21:07:37 10° NE
Meteor 2-1 Rocket 4.3 20:58:43 10° N 21:04:12 65° ENE 21:08:05 20° SSE
ERS-1 Rocket 3.7 21:03:41 12° S 21:08:08 47° W 21:13:00 10° NNW
RESURS DK-1 2.3 21:06:33 10° NNW 21:10:42 89° WSW 21:13:07 24° SSE
Cosmos 2058 Rocket 4.1 21:11:20 10° N 21:15:23 35° ENE 21:17:48 20° SE
CZ-2C R/B 4.3 21:11:48 10° N 21:16:21 58° WNW 21:20:46 10° SSW
Cosmos 1892 Rocket 4.2 21:16:26 24° SSE 21:18:38 41° E 21:22:46 10° NNE
ARIANE 5 R/B 3.2 21:18:10 18° S 21:21:19 53° W 21:25:42 10° NNW
Cosmos 1741 Rocket 4.3 21:17:05 10° NNW 21:22:21 64° WSW 21:25:51 21° S
Cosmos 968 Rocket 4.1 21:18:55 10° NNW 21:23:58 48° ENE 21:27:23 20° SE
Cosmos 1825 4.1 21:24:12 15° ESE 21:25:07 16° E 21:27:28 10° NE
Cosmos 2344 4.3 21:19:48 10° NW 21:28:35 84° NE 21:38:57 16° SE
SL-8 R/B 3.6 21:25:04 10° W 21:29:52 70° SSW 21:33:28 18° ESE
GP-B 3.3 21:27:17 10° N 21:31:41 56° E 21:33:53 27° SSE
ADEOS Rocket 4.2 21:33:32 16° SE 21:38:57 46° ENE 21:46:09 10° N
ASTEX 1 3.4 21:34:43 10° N 21:39:45 80° E 21:42:46 25° S
COSMOS 2406 3.4 21:37:53 21° S 21:41:37 57° ESE 21:47:16 10° NE
USA 267 3.2 21:37:01 10° NE 21:43:36 84° SE 21:50:09 10° SW
Cosmos 2369 3.8 21:38:51 10° NNW 21:44:37 76° ENE 21:48:09 24° SE
SL-16 R/B 3.9 21:40:58 10° N 21:45:41 26° NE 21:50:21 10° E
Cosmos 2228 4.3 21:45:39 10° NNW 21:49:26 32° W 21:52:05 17° SW
Okean 1-7 Rocket 4.4 21:50:04 27° SE 21:51:41 37° E 21:55:50 10° NNE
Nadezhda 1 Rocket 4.4 21:47:09 13° SSW 21:52:35 58° WNW 21:58:36 10° N
Cosmos 1980 Rocket 2.2 21:47:30 10° NNW 21:53:15 78° ENE 21:56:37 26° SE
Cosmos 1606 Rocket 4.3 21:50:28 10° NNW 21:54:35 44° W 21:56:56 23° SSW
BREEZE-M DEB (TANK) 4.3 21:41:11 10° SW 21:55:02 54° SSE 21:59:05 10° E
Cosmos 1697 Rocket 3.0 21:50:13 10° NW 21:55:43 56° WSW 21:58:44 26° S
Cosmos 1892 2.7 21:55:58 38° SSE 21:57:12 64° E 22:00:56 10° NNE
SJ 16-02 3.7 21:55:41 10° N 21:58:35 17° NE 22:01:29 10° E
Meteor 1-11 4.2 21:57:30 25° S 22:00:55 83° E 22:06:32 10° NNE
Cosmos 2084 Rocket 3.2 21:57:07 10° NW 22:01:02 86° NE 22:02:43 34° SE
USA 276 2.3 22:02:36 10° W 22:05:36 64° N 22:08:35 10° ENE
In-Cosmos 22 Rocket 4.2 22:06:28 29° S 22:09:22 66° E 22:14:50 10° NNE
X-37B 2.8 22:12:29 10° WSW 22:12:57 14° WSW 22:12:57 14° WSW
Cosmos 1408 2.8 22:15:25 35° SW 22:16:35 58° W 22:20:01 10° N
USA 234 3.3 22:14:25 24° SE 22:18:35 64° SW 22:25:06 10° WNW
Lacrosse 5 3.9 22:16:34 10° W 22:18:58 13° WSW 22:20:08 13° SW
Terra 4.2 22:18:25 10° WSW 22:20:34 13° W 22:22:44 10° WNW
FALCON 9 DEB 4.2 22:19:47 10° WNW 22:22:56 42° NNE 22:26:04 10° E
Cosmos 1833 Rocket 3.6 22:18:49 10° SW 22:24:12 47° NW 22:29:39 10° NNE
Cosmos 2322 Rocket 3.6 22:19:53 10° NNW 22:25:01 34° NE 22:30:09 10° ESE
Cosmos 1867 3.5 22:23:00 10° NW 22:28:30 82° SW 22:31:17 30° SSE
Cosmos 2278 3.7 22:23:35 10° NNW 22:29:21 87° ENE 22:32:24 29° SSE
SL-8 Rocket 4.2 22:24:07 10° NNW 22:30:16 61° W 22:33:46 26° SSW
ATLAS 5 CENTAUR R/B 2.2 22:30:26 29° ESE 22:30:26 29° ESE 22:33:55 10° ENE
Cosmos 1812 Rocket 3.8 22:28:14 10° N 22:32:41 61° ENE 22:34:25 34° SE
ALOS 2 2.6 22:32:45 38° S 22:34:24 77° WSW 22:38:49 10° NNW
Cosmos 1302 Rocket 4.3 22:31:56 20° SW 22:35:29 63° WNW 22:40:40 10° NNE
Cosmos 2218 Rocket 4.3 22:36:03 10° NNW 22:42:21 60° W 22:45:53 27° SSW
Cosmos 2366 rocket 4.4 22:39:56 10° NNW 22:46:05 56° W 22:49:34 26° SSW
Aureole 1 Rocket 4.4 22:39:49 10° NNW 22:46:43 89° ENE 22:51:52 25° SSE
Cosmos 2082 Rocket 2.4 22:42:49 19° SW 22:46:55 69° WNW 22:52:38 10° NNE
Cosmos 1602 Rocket 3.5 22:45:32 41° S 22:46:59 78° E 22:51:19 10° NNE
H-2A R/B 3.7 22:45:15 10° N 22:49:26 67° WNW 22:51:09 34° SW
Cosmos 1825 3.0 22:58:50 30° WSW 23:00:07 41° WNW 23:03:42 10° N
Cosmos 2360 Rocket 3.3 22:59:15 10° NNW 23:04:39 42° NE 23:09:53 11° ESE
ERS-2 2.0 23:01:27 10° NNE 23:05:04 85° WNW 23:05:53 52° SSW
Cosmos-2242 2.9 23:02:41 10° NNW 23:06:57 76° W 23:08:16 43° S
Cosmos 1953 Rocket 4.4 23:09:48 29° SE 23:11:21 40° E 23:15:31 10° NNE
Cosmos 1626 Rocket 4.5 23:10:22 25° SW 23:12:19 40° WNW 23:16:25 10° N
Cosmos 1606 2.6 23:13:29 10° NNW 23:17:21 81° W 23:18:18 49° S
Cosmos 2058 3.1 23:16:21 41° SSE 23:17:38 64° E 23:21:48 10° NNE
BREEZE-M DEB (TANK) 4.2 23:14:49 10° WNW 23:18:46 81° SSW 23:36:47 10° ESE
Cosmos 1934 Rocket 4.1 23:12:49 10° N 23:18:54 71° E 23:22:23 27° SSE
ADEOS Rocket 4.0 23:20:28 25° SSW 23:24:22 45° W 23:31:40 10° NNW
Cosmos 1825 Rocket 3.4 23:22:58 41° S 23:24:25 82° E 23:28:46 10° N
Cosmos 1633 3.4 23:25:15 31° WSW 23:26:08 38° WNW 23:29:25 10° N
USA 267 4.1 23:20:07 10° ENE 23:26:23 50° NNW 23:32:38 10° W
CRYOSAT 2 4.3 23:25:28 35° S 23:27:34 90° ENE 23:32:30 10° N
SL-16 R/B 2.2 23:24:40 10° NNW 23:30:20 71° WSW 23:33:07 31° S
SL-19 R/B 4.4 23:31:17 38° SE 23:32:31 67° ENE 23:36:34 10° NNW
Cosmos 972 Rocket 4.3 23:30:19 10° NNW 23:35:20 63° ENE 23:38:53 21° SE
Cosmos 1980 Rocket 3.9 23:32:44 10° WNW 23:36:34 19° W 23:38:21 16° WSW
SJ 16-02 1.3 23:33:14 10° NNW 23:37:40 71° WSW 23:39:13 39° S
Gbstr 26 Del rocket 4.4 23:39:34 26° SE 23:40:06 26° SE 23:44:31 10° ENE
Cosmos 1842 Rocket 4.3 23:36:15 10° N 23:40:36 48° ENE 23:43:01 24° SE
USA 276 1.9 23:38:24 10° WNW 23:41:25 81° NNE 23:44:25 10° ESE
Meteor 2-2 Rocket 4.4 23:36:45 10° NNW 23:42:43 76° W 23:45:55 29° S
Cosmos 2219 Rocket 3.5 23:39:44 10° NNW 23:45:02 39° NE 23:50:19 10° ESE
Cosmos 1340 Rocket 2.7 23:48:44 44° SSW 23:49:56 89° W 23:53:54 10° NNE
CZ-2D R/B 3.7 23:46:10 10° NE 23:50:24 24° E 23:53:35 14° SE
